Weather History for KADG - January, 2012

Change the Weather History Date:

Monday, January 23, 2012

  Actual Average Record
Temperature  
Mean Temperature 40 °F -  
Max Temperature 48 °F 35 °F 61 °F (1967)
Min Temperature 30 °F 16 °F -17 °F (1963)
Degree Days  
Heating Degree Days 25    
Moisture  
Dew Point 37 °F    
Average Humidity 91    
Maximum Humidity 100    
Minimum Humidity 69    
Precipitation  
Precipitation 0.62 in - - ()
Sea Level Pressure  
Sea Level Pressure 29.65 in    
Wind  
Wind Speed 11 mph (SSW)    
Max Wind Speed 25 mph    
Max Gust Speed 38 mph    
Visibility 7 miles    
Events Rain , Thunderstorm    
Averages and records for this station are not official NWS values.
T = Trace of Precipitation, MM = Missing Value Source: NWS Daily Summary

Daily Weather History Graph

Daily Weather History Graph

Search for Another Location

Airport or City:

Trip Planner

Search our weather history database for the weather conditions in past years. The results will help you decide how hot, cold, wet, or windy it might be!

Date:

Astronomy

Jan. 23, 2012 Rise Set
Actual Time 7:57 AM EST 5:39 PM EST
Civil Twilight 7:26 AM EST 6:09 PM EST
Nautical Twilight 6:52 AM EST 6:43 PM EST
Astronomical Twilight 6:19 AM EST 7:16 PM EST
Moon 7:51 AM EST (1/23) 6:27 PM EST (1/23)
Length of Visible Light 10h 42m
Length of Day
9h 42m
New Moon, 0% of the Moon is Illuminated
Jan 23
New Moon
Jan 30
First Quarter
Feb 7
Full
Feb 14
Last Quarter
Feb 21
New

Hourly Weather History & Observations

Time (EST) Temp. Windchill Dew Point Humidity Pressure Visibility Wind Dir Wind Speed Gust Speed Precip Events Conditions
12:14 AM 35.6 °F 31.7 °F 35.6 °F 100% 29.77 in 1.0 mi SE 4.6 mph - N/A   Overcast
12:40 AM 35.6 °F 30.7 °F 35.6 °F 100% 29.75 in 2.0 mi SE 5.8 mph - N/A   Overcast
12:51 AM 37.4 °F 32.1 °F 35.6 °F 93% 29.74 in 3.0 mi SE 6.9 mph - N/A   Overcast
12:53 AM 36.0 °F 30.3 °F 36.0 °F 100% 29.77 in 3.0 mi SE 6.9 mph - N/A   Overcast
1:04 AM 35.6 °F 29.2 °F 35.6 °F 100% 29.72 in 2.5 mi SE 8.1 mph - N/A   Overcast
1:20 AM 37.4 °F 32.1 °F 35.6 °F 93% 29.71 in 3.0 mi SSE 6.9 mph - N/A   Overcast
1:38 AM 37.4 °F 32.8 °F 37.4 °F 100% 29.70 in 3.0 mi SSE 5.8 mph - N/A   Overcast
1:53 AM 39.0 °F 34.0 °F 39.0 °F 100% 29.71 in 4.0 mi SSE 6.9 mph - N/A   Overcast
2:22 AM 39.2 °F 35.9 °F 39.2 °F 100% 29.65 in 3.0 mi SE 4.6 mph - N/A   Overcast
2:33 AM 41.0 °F 36.4 °F 39.2 °F 93% 29.64 in 4.0 mi SSE 6.9 mph - N/A   Mostly Cloudy
2:45 AM 39.2 °F 32.5 °F 39.2 °F 100% 29.64 in 6.0 mi South 10.4 mph - N/A   Mostly Cloudy
2:53 AM 39.9 °F 32.9 °F 39.0 °F 97% 29.67 in 8.0 mi South 11.5 mph - N/A   Mostly Cloudy
3:07 AM 41.0 °F 33.5 °F 39.2 °F 93% 29.62 in 10.0 mi South 13.8 mph - N/A   Overcast
3:30 AM 42.8 °F 35.4 °F 39.2 °F 87% 29.60 in 9.0 mi South 15.0 mph - 0.00 in Rain Light Rain
3:53 AM 42.1 °F 33.3 °F 39.9 °F 92% 29.61 in 4.0 mi South 19.6 mph 26.5 mph 0.07 in Rain , Thunderstorm Rain
4:08 AM 41.0 °F 33.5 °F 41.0 °F 100% 29.59 in 1.5 mi South 13.8 mph - 0.21 in Rain Heavy Rain
4:32 AM 42.8 °F 35.4 °F 42.8 °F 100% 29.63 in 1.8 mi SSW 15.0 mph 23.0 mph 0.53 in Rain Rain
4:35 AM 42.8 °F 34.5 °F 42.8 °F 100% 29.63 in 2.5 mi SSW 18.4 mph 24.2 mph 0.53 in Rain Rain
4:43 AM 44.6 °F 36.9 °F 42.8 °F 93% 29.62 in 7.0 mi SSW 18.4 mph 25.3 mph 0.54 in Rain Light Rain
4:53 AM 45.0 °F 37.9 °F 44.1 °F 97% 29.64 in 10.0 mi SSW 16.1 mph - 0.54 in   Overcast
5:00 AM 44.6 °F 38.1 °F 44.6 °F 100% 29.61 in 10.0 mi SSW 13.8 mph - N/A   Overcast
5:43 AM 42.8 °F 36.2 °F 42.8 °F 100% 29.57 in 7.0 mi South 12.7 mph - N/A   Overcast
5:53 AM 44.1 °F 37.4 °F 43.0 °F 96% 29.58 in 7.0 mi South 13.8 mph - 0.00 in Rain Light Rain
7:53 AM 43.0 °F 36.8 °F 42.1 °F 97% 29.55 in 10.0 mi South 11.5 mph - N/A   Clear
8:53 AM 42.1 °F 36.1 °F 41.0 °F 96% 29.55 in 9.0 mi South 10.4 mph - N/A   Clear
9:48 AM 42.8 °F 38.6 °F 42.8 °F 100% 29.52 in 10.0 mi SSW 6.9 mph - N/A   Overcast
9:53 AM 43.0 °F 37.7 °F 42.1 °F 97% 29.54 in 10.0 mi SSW 9.2 mph - N/A   Overcast
10:53 AM 46.0 °F 40.6 °F 43.0 °F 89% 29.53 in 10.0 mi SSW 11.5 mph - N/A   Overcast
11:53 AM 48.9 °F - 46.0 °F 90% 29.49 in 10.0 mi SSW 17.3 mph - N/A   Overcast
1:53 PM 46.9 °F - 44.1 °F 90% 29.49 in 5.0 mi West 18.4 mph 28.8 mph 0.01 in Rain Light Rain
2:28 PM 44.6 °F 37.4 °F 39.2 °F 81% 29.50 in 10.0 mi West 16.1 mph 26.5 mph 0.00 in   Overcast
2:41 PM 42.8 °F 33.3 °F 37.4 °F 81% 29.51 in 10.0 mi West 24.2 mph 34.5 mph 0.00 in   Overcast
3:53 PM 36.0 °F 25.6 °F 33.1 °F 89% 29.60 in 10.0 mi West 18.4 mph 31.1 mph N/A   Overcast
4:28 PM 35.6 °F 24.0 °F 30.2 °F 81% 29.59 in 10.0 mi WSW 23.0 mph 33.4 mph N/A   Overcast
4:53 PM 35.1 °F 24.8 °F 30.9 °F 85% 29.63 in 10.0 mi WSW 17.3 mph 25.3 mph N/A   Overcast
5:26 PM 35.6 °F 25.5 °F 30.2 °F 81% 29.63 in 10.0 mi WSW 17.3 mph 38.0 mph N/A   Overcast
5:53 PM 35.1 °F 25.5 °F 30.0 °F 82% 29.68 in 10.0 mi West 15.0 mph 29.9 mph N/A   Overcast
6:53 PM 34.0 °F 22.4 °F 30.0 °F 85% 29.72 in 10.0 mi West 20.7 mph 31.1 mph N/A   Overcast
7:15 PM 33.8 °F 21.6 °F 28.4 °F 81% 29.71 in 10.0 mi West 23.0 mph 34.5 mph N/A   Overcast
7:53 PM 34.0 °F 21.3 °F 28.0 °F 79% 29.76 in 10.0 mi West 25.3 mph 36.8 mph N/A   Overcast
8:53 PM 33.1 °F 20.3 °F 24.1 °F 70% 29.81 in 10.0 mi West 24.2 mph 34.5 mph N/A   Overcast
9:53 PM 32.0 °F 20.1 °F 25.0 °F 75% 29.83 in 10.0 mi West 19.6 mph 25.3 mph N/A   Overcast
10:53 PM 32.0 °F 20.1 °F 23.0 °F 69% 29.86 in 10.0 mi West 19.6 mph 29.9 mph N/A   Overcast
11:53 PM 30.9 °F 20.2 °F 23.0 °F 72% 29.88 in 10.0 mi West 15.0 mph 29.9 mph N/A   Overcast